Location: Hains Lake
(37.8540°N, 99.8578°W)
Time: 01:13:55
(UTC+00:00)

Transit 2A - Pass Details

Date: 28 April 2021
Orbit: 602 x 957 km, 66.7° (Epoch: 14 May)

Event Time Altitude Azimuth Distance (km) Brightness Sun altitude
Rises 20:25:02 0° 336° (NNW) 2,897 8.9 56.5°
Reaches altitude 10° 20:27:17 10° 340° (NNW) 2,016 8.2 56.2°
Maximum altitude 20:31:44 57° 60° (ENE) 782 6.5 55.4°
Drops below altitude 10° 20:36:33 10° 139° (SE) 2,177 8.4 54.7°
Sets 20:39:03 0° 143° (SE) 3,152 9.2 54.2°
